www.pogodaiklimat.ru

Погода и климат >> Архив погоды >> Иран >> Saravan


ПОГОДА в Saravan

  • Прогноз погоды в Saravan
  • Монитор погоды в Saravan
  • Климат города

АРХИВ ПОГОДЫ в Saravan

Время (UTC), дата Ветер
(напр.,м/с)
 
Видим.   Явления Облачность Т
(С)
Тd
(С)
f
(%)
Тe
(С)
Тes
(С)
Комфортность P
(гПа)
Po
(гПа)
Тmin
(С)
Tmax
(С)
R
(мм)
R24
(мм)
S
(см)
21 4.12 штиль 0 15 км ясно +7.9 -7.0 34 +8 +8 1020.4 888.0
00 5.12 С 3 15 км ясно +6.0 -8.4 35 +4 +4 1021.5 887.8
03 5.12 С 2 15 км ясно +3.8 -9.0 39 +2 +2 1024.2 888.5 +3.8
06 5.12 СЗ 2 15 км ясно +16.1 -5.3 23 +16 +23 1022.0 889.1
09 5.12 З 2 15 км 1/0
[Ci sp]
+21.5 -6.8 14 +20 +28 1018.8 886.1
12 5.12 Ю 2 15 км 5/0
[Cs]
+23.2 -7.2 13 +21 +22 комфорт 1017.2 884.7
15 5.12 штиль 0 15 км 5/0
[Cs]
+17.4 -5.0 21 +17 +17 1019.9 885.4 +23.4
18 5.12 штиль 0 15 км ясно +15.0 -5.0 25 +15 +15 1017.5 885.4
21 5.12 штиль 0 15 км ясно +10.1 -6.3 31 +10 +10 1015.9 884.3
00 6.12 штиль 0 15 км ясно +7.7 -7.8 32 +8 +8 1015.9 883.9
03 6.12 штиль 0 15 км ясно +5.8 -8.7 34 +6 +6 1018.5 884.5 +5.4
06 6.12 штиль 0 15 км 3/0
[Ci sp]
+17.0 -4.6 22 +17 +25 1017.3 885.4
09 6.12 В 2 15 км 5/0
[Cs]
+21.0 -5.5 16 +21 +28 комфорт 1014.5 882.8
12 6.12 З 2 15 км 5/0
[Cs]
+24.0 -5.8 13 +22 +23 комфорт 1012.8 881.4
15 6.12 В 2 15 км 3/0
[Ci sp]
+17.2 -5.9 20 +18 +18 1016.2 882.5 +24.7
18 6.12 штиль 0 15 км ясно +11.8 -7.3 26 +12 +12 1015.2 882.9
21 6.12 штиль 0 15 км ясно +8.7 -7.2 32 +9 +9 1013.9 882.6
00 7.12 штиль 0 15 км ясно +6.0 -10.2 30 +6 +6 1013.9 882.0
03 7.12 С 2 15 км ясно +4.9 -10.4 32 +3 +3 1016.9 882.9 +4.4
06 7.12 штиль 0 15 км ясно +19.9 -1.6 23 +20 +29 1015.7 884.0
09 7.12 З 5 15 км ясно +24.2 -2.9 16 +22 +27 комфорт 1012.0 881.0
12 7.12 З 7 15 км ясно +24.5 -7.5 11 +22 +22 комфорт 1011.5 880.0
15 7.12 Ю 5 15 км ясно +19.1 +5.0 39 +19 +19 1015.2 882.1 +25.3
18 7.12 ЮЗ 2 15 км ясно +16.6 +8.3 58 +17 +17 1012.9 882.9
21 7.12 ЮЗ 4 15 км ясно +15.5 +10.1 70 +15 +15 882.5
00 8.12 ЮЗ 2 15 км ясно +14.1 +4.3 52 +14 +14 1012.1 882.5
03 8.12 штиль 0 15 км ясно +10.1 +5.6 74 +10 +10 1016.1 884.0 +10.1
06 8.12 штиль 0 12 км ясно +18.8 +5.0 40 +19 +28 1016.3 885.5
09 8.12 З 3 12 км ясно +21.5 +2.5 29 +21 +28 комфорт 1013.4 883.2
12 8.12 З 5 12 км ясно +21.6 +0.7 25 +21 +22 комфорт 1012.6 882.2
15 8.12 З 6 15 км ясно +18.2 +1.2 32 +18 +18 1016.0 883.6 +22.4
18 8.12 штиль 0 15 км ясно +13.4 -0.1 39 +13 +13 1015.6 884.1
21 8.12 штиль 0 15 км ясно +9.9 -0.4 49 +10 +10 1014.6 883.1
00 9.12 штиль 0 15 км ясно +7.1 +5.0 86 +6 +6 1014.7 882.7
03 9.12 штиль 0 15 км ясно +5.7 -0.7 63 +5 +5 1017.4 883.9 +5.6
06 9.12 штиль 0 12 км ясно +17.3 -3.3 24 +17 +26 1016.8 884.9
09 9.12 СЗ 3 15 км ясно +21.7 -5.6 16 +20 +27 1013.9 882.4
12 9.12 СЗ 2 15 км ясно +21.9 -4.6 17 +21 +22 комфорт 1013.3 881.3
15 9.12 СВ 3 15 км ясно +17.2 -3.2 25 +17 +17 1016.0 882.4 +23.1
18 9.12 С 3 15 км ясно +14.9 -1.6 32 +14 +14 1015.3 883.8
21 9.12 штиль 0 15 км ясно +9.4 -3.2 41 +9 +9 1015.0 883.7
00 10.12 штиль 0 15 км ясно +7.0 -3.8 46 +7 +7 1015.9 883.6
03 10.12 штиль 0 15 км ясно +4.9 -4.8 49 +5 +5 1018.6 884.4 +4.8
06 10.12 штиль 0 15 км ясно +15.9 -2.0 29 +16 +25 1018.7 886.4
09 10.12 СВ 2 15 км ясно +19.1 -4.2 20 +20 +27 1016.0 883.6
12 10.12 штиль 0 15 км ясно +20.1 -4.4 19 +20 +21 1015.1 882.5
15 10.12 СВ 3 15 км ясно +15.2 -6.3 22 +15 +15 1018.7 884.1 +21.2
18 10.12 штиль 0 15 км ясно +12.7 -6.4 26 +13 +13 1017.8 885.1
21 10.12 штиль 0 15 км ясно +12.3 -6.3 27 +12 +12 1016.5 884.4
00 11.12 штиль 0 15 км ясно +7.0 -7.3 35 +7 +7 1016.7 883.8
03 11.12 штиль 0 15 км ясно +4.3 -8.4 39 +4 +4 1020.5 885.5 +3.9
06 11.12 штиль 0 15 км ясно +14.2 -5.0 26 +14 +23 1020.0 886.7
09 11.12 штиль 0 15 км ясно +18.3 -5.6 19 +18 +29 1016.6 884.5
12 11.12 штиль 0 15 км ясно +19.8 -5.7 17 +19 +21 1016.3 883.4
15 11.12 СВ 5 15 км ясно +14.5 -5.6 24 +13 +13 1020.9 885.7 +20.9
18 11.12 СВ 3 15 км ясно +13.0 -5.7 27 +12 +12 1019.6 886.4

 

Местоположение метеостанции Saravan (Иран): широта 27.33 долгота 62.33 высота над уровнем моря 1195 м.

В архиве по умолчанию представлена погода в Saravan за последнюю неделю. Архивные данные за месяц целиком и за предыдущие месяцы, начиная с января 2011 года, Вы можете получить, выбрав интересующий диапазон дат из раскрывающегося списка и нажав кнопку "Ввод!".


*Определитесь, кто Вы:
робот инопланетянин человек

Внимание! Время в таблицах - всемирное. Для получения местного времени необходимо прибавить поправку, которая в Saravan равна 3.5 ч.

Смотрите также архив погоды в соседних городах и на ближайших метеорологических станциях:

Погода в Iranshahr (Иран) (162 км)
Погода в Nokkundi (Пакистан) (171 км)
Погода в Panjgur (Пакистан) (180 км)
Погода в Gawadar (Пакистан) (245 км)
Погода в Pasni (Пакистан) (256 км)
Погода в Jiwani (Пакистан) (257 км)
Погода в Dal Bandin (Пакистан) (266 км)
Погода в Zahedan (Иран) (277 км)
Погода в Chah Bahar Airport (Иран) (285 км)
Погода в Zabol (Иран) (422 км)

Пояснения к столбцам:

Ветер - указаны скорость ветра в м/с - средняя за 10 мин, порывы в срок и между сроками (в фигурных скобках) и направление, откуда дует ветер: С - северный, СВ - северо-восточный, В - восточный, ЮВ - юго-восточный, Ю - южный, ЮЗ - юго-западный, З - западный, СЗ - северо-западный.
Видимость - горизонтальная дальность видимости в метрах или километрах. При видимости от 1 до 10 км при отсутствии осадков обычно наблюдается дымка, при ухудшении видимости до 1 км и менее - туман. В сухую погоду видимость может ухудшаться дымом, пылью или мглою.
Явления - указаны атмосферные явления, наблюдавшиеся в срок или в последний час перед сроком; фигурными скобками обозначены явления, наблюдавшиеся между сроками (за 1-3 часа до срока); квадратными скобками обозначены град или гололедные отложения с указанием их диаметра в мм.
Облачность - указаны через наклонную черту общая и нижняя облачность в баллах и высота нижней границы облаков в метрах; квадратными скобками обозначены формы облаков: Ci - перистые, Cs - перисто-слоистые, Cc - перисто-кучевые, Ac - высококучевые, As - высокослоистые, Sc - слоисто-кучевые, Ns - слоисто-дождевые, Cu - кучевые, Cb - кучево-дождевые. Подробнее классификацию облаков см. в Атласе облаков (PDF).
T - Температура воздуха - температура, измеренная на высоте 2 м над землей.
Td - Температура точки росы - температура, при понижении до которой содержащийся в воздухе водяной пар достигнет насыщения.
f - Относительная влажность воздуха - влажноcть воздуха, измеренная на высоте 2 м над землей.
Te - Эффективная температура - температура, которую ощущает одетый по сезону человек в тени. Характеристика душности погоды. При расчете учитывается влияние влажности воздуха и скорости ветра на теплоощущения человека.
Tes - Эффективная температура на солнце - температура, которую ощущает человек, с поправкой на солнечный нагрев. Характеристика знойности погоды. Зависит от высоты солнца над горизонтом, облачности и скорости ветра. Ночью, в пасмурную погоду, а также при ветре 12 м/с и более поправка равна нулю.
P - Атмосферное давление - приведенное к уровню моря атмосферное давление.
Po - Атмосферное давление - измеренное на уровне метеостанции атмосферное давление.
Tmin - Минимальная температура - минимум температуры воздуха на высоте 2 м над землей.
Tmax - Максимальная температура - максимум температуры воздуха на высоте 2 м над землей.
R - Количество осадков - Количество выпавших осадков за период времени, мм. При наведении курсора мыши на число - период времени, за который выпало указанное количество осадков.
R24 - Количество осадков - Количество выпавших осадков за 24 часа, мм.
S - Снежный покров - Высота снежного покрова, см. При наведении курсора мыши на число - состояние снежного покрова и степень покрытия местности в баллах.